Regional Weather Roundup
Issued by NWS

Home | Current Version | Previous Version | Text Only | Print | Product List | Glossary Off
Versions: 1 2 3 4 5 6 7 8 9 10 11 12 13 14 15 16 17 18 19 20 21 22 23 24 25 26 27 28 29 30 31 32 33 34 35 36 37 38 39 40 41 42 43 44 45 46 47 48 49 50

000
ASUS43 KLOT 260703
RWRIL

ILLINOIS REGIONAL WEATHER ROUNDUP
NATIONAL WEATHER SERVICE CHICAGO/ROMEOVILLE IL
200 AM CDT MON SEP 26 2016

NOTE: "FAIR" INDICATES FEW OR NO CLOUDS BELOW 12,000 FEET WITH NO
SIGNIFICANT WEATHER AND/OR OBSTRUCTIONS TO VISIBILITY.

* THESE STATIONS ARE NOT UNDER NWS QUALITY CONTROL. THEY ALSO MAY NOT
  REPORT WEATHER SUCH AS PRECIPITATION OR FOG.

ILZ001-002-007-009-015-016-024-260800-
NORTHWEST ILLINOIS

CITY           SKY/WX    TMP DP  RH WIND       PRES   REMARKS
MOLINE         CLOUDY    61  51  70 W9        30.05F
STERLING*      CLOUDY    60  52  74 W10       30.03R
$$

ILZ003-004-008-010-011-017-018-260800-
NORTH CENTRAL ILLINOIS

CITY           SKY/WX    TMP DP  RH WIND       PRES   REMARKS
ROCKFORD       CLOUDY    61  51  70 W14G23    30.01S
FREEPORT*      CLOUDY    58  50  73 W10       30.03R
ROCHELLE*      CLOUDY    60  51  72 NW17G24   30.02R
$$

ILZ005-006-012>014-019>023-260800-
NORTHEAST ILLINOIS

CITY           SKY/WX    TMP DP  RH WIND       PRES   REMARKS
CHICAGO-OHARE  CLOUDY    62  54  74 W15       29.96S
CHICAGO-MIDWAY LGT RAIN  64  54  69 W15       29.97R
AURORA         CLOUDY    63  53  70 W9        30.00R
LANSING*       LGT RAIN  66  55  67 W15       29.98R
JOLIET*        LGT RAIN  63  57  82 W6        29.99F
WAUKEGAN       CLOUDY    62  53  72 VRB7      29.93R
DUPAGE AIRPORT MOCLDY    62  52  69 W10       29.98R
KANKAKEE*      CLOUDY    65  53  65 NW12G18   30.00S
WHEELING       LGT RAIN  63  54  72 W9        29.97R
MORRIS*        LGT RAIN  61  55  82 W8        30.00R
ROMEOVILLE*    RAIN      60  58  92 W8        29.99S
NORTHERLY ISL    N/A     65  53  65 SW8         N/A
$$

LMZ740>746-260800-
SOUTHERN LAKE MICHIGAN

STATION/POSITION SKY/WX   TEMP    WIND        PRES    VSBY  WAVE
                          AIR SEA DIR/SP/G                  HT/PER
                          (F)     (DEG/KT/KT) (MB)    (MI)  (FT/S)
SOUTHERN BUOY              67 72  280/ 19/ 23 1012.1          4/ 4
WILMETTE HARBOR            65 65  300/ 14/ 17   N/A           2/ 3
HARRISON CRIB              67     280/ 18/ 21   N/A
BURNHAM HARBOR             64     240/  8/ 16   N/A
CALUMET HARBOR             67     280/  7/ 12 1014.0S
BURNS HARBOR               67     290/ 16/ 18 1014.6S
MICHIGAN CITY              67     260/ 19/ 20   N/A
MICHIGAN CITY 6N           69 68  300/ 14/ 17   N/A           4/ 3
ST. JOSEPH                 68 64  300/ 17/ 23 1013.3R         4/ 4
$$

ILZ025>027-034>036-040-047-049-050-058-095>099-260800-
WEST-CENTRAL ILLINOIS

CITY           SKY/WX    TMP DP  RH WIND       PRES   REMARKS
QUINCY         MOCLDY    61  52  72 W6        30.13R
GALESBURG*     CLOUDY    60  51  73 W6        30.08S
MACOMB*        CLOUDY    61  51  70 W7        30.12R
JACKSONVILLE*  LGT RAIN  60  58  92 W3        30.11S
PITTSFIELD*    DRIZZLE   60  57  88 W6        30.13F
$$

ILZ028>032-037-038-041>044-048-051>054-059>061-260800-
CENTRAL ILLINOIS

CITY           SKY/WX    TMP DP  RH WIND       PRES   REMARKS
PONTIAC        LGT RAIN  61  59  93 W8        30.04R
BLOOMINGTON    LGT RAIN  59  56  89 W8        30.06R
DECATUR        CLOUDY    64  51  62 NW12G22   30.07R
PEORIA         CLOUDY    62  54  74 NW6       30.06F
LACON*         CLOUDY    62  50  66 W8        30.04F
LINCOLN*       LGT RAIN  59  57  94 W5        30.08R
SPRINGFIELD    RAIN      59  57  93 W5        30.10R FOG
TAYLORVILLE    MOCLDY    64  51  61 NW15G22   30.08S
$$

ILZ033-039-045-046-055>057-062-063-260800-
EAST-CENTRAL ILLINOIS

CITY           SKY/WX    TMP DP  RH WIND       PRES   REMARKS
CHAMPAIGN      RAIN      62  57  83 W10       30.05R
MATTOON        RAIN      61  56  83 NW18      30.05R
PARIS*         CLOUDY    65  58  77 NW5       30.03R
$$

ILZ079-100>102-260800-
SOUTHWEST ILLINOIS

CITY           SKY/WX    TMP DP  RH WIND       PRES   REMARKS
ALTON          RAIN      59  57  91 NW10G16   30.11S
CAHOKIA*       CLOUDY    64  56  75 N17G24    30.11S
SPARTA*        CLOUDY    64  57  77 NW14G22   30.09S
$$

ILZ064>066-069>071-074>076-080>082-084>086-088>090-092>094-260800-
SOUTH-CENTRAL ILLINOIS

CITY           SKY/WX    TMP DP  RH WIND       PRES   REMARKS
CARBONDALE     RAIN      70  70 100 N12G22    30.05R FOG
EFFINGHAM*     LGT RAIN  61  60  96 NW15G23   30.07R
MARION         TSTM      72  72 100 N9G17     30.04R
MT. VERNON     CLOUDY    66  57  72 N8G21     30.06R
CENTRALIA*     DRIZZLE   64  61  91 NW12      30.07R
SALEM*         CLOUDY    64  59  83 NW10      30.07R
METROPOLIS*    MOCLDY    73  70  90 CALM      30.00R
$$

ILZ067-068-072-073-078-083-087-091-260800-
SOUTHEAST ILLINOIS

CITY           SKY/WX    TMP DP  RH WIND       PRES   REMARKS
LAWRENCEVILLE  CLOUDY    74  68  81 NW10      29.98S
FLORA*         CLOUDY    66  61  84 NW17G25   30.04R
FAIRFIELD*     CLOUDY    72  67  85 NW6       30.02R
HARRISBURG*    LGT RAIN  71  69  94 NW10      30.00F
ROBINSON*      PTCLDY    71  67  88 NW12      30.01R
CARMI*         MOCLDY    71  71  98 NW12      29.98S
$$

ABBREVIATIONS USED IN REMARKS
   TC - TEMPERATURE IN CELSIUS
  WCI - WIND CHILL INDEX
   HX - HEAT INDEX
  VSB - VISIBILITY
$$





USA.gov is the U.S. government's official web portal to all federal, state and local government web resources and services.